Location: Alfortville
(48.8058°N, 2.4204°E)
Time: 04:54:07
(UTC+00:00)

USA 229 DEB - Pass Details

Date: 06 June 2022
Orbit: 934 x 1278 km, 63.4° (Epoch: 24 May)

Event Time Altitude Azimuth Distance (km) Brightness Sun altitude
Rises 00:12:00 0° 305° (NW) 4,055 7.1 -18.4°
Reaches altitude 10° 00:17:00 10° 276° (W) 3,163 6.2 -18.3°
Maximum altitude 00:19:23 12° 257° (WSW) 3,061 5.9 -18.2°
Drops below altitude 10° 00:21:48 10° 239° (WSW) 3,214 5.8 -18.2°
Enters shadow 00:22:05 10° 237° (WSW) 3,247 5.8 -18.2°
